Regional Weather Roundup
Issued by NWS Green Bay, WI

Home | Current Version | Previous Version | Graphics & Text | Print | Product List | Glossary Off
Versions: 1 2 3 4 5 6 7 8 9 10 11 12 13 14 15 16 17 18 19 20 21 22 23 24 25 26 27 28 29 30 31 32 33 34 35 36 37 38 39 40 41 42 43 44 45 46 47 48 49 50

000
ASUS43 KGRB 290610
RWRGRB

NORTH-CENTRAL AND NORTHEAST WISCONSIN REGIONAL WEATHER ROUNDUP
NATIONAL WEATHER SERVICE GREEN BAY WI
100 AM CDT TUE JUL 29 2014

WIZ005-009-010>012-018-019-290700-
NORTH CENTRAL WISCONSIN

CITY           SKY/WX    TMP DP  RH WIND       PRES   REMARKS
IRONWOOD       NOT AVBL
MANITOWISH WTR LGT RAIN  56  55  96 N3        30.08S
ARBOR VITAE    PTCLDY    57  54  89 NW8       30.08R
EAGLE RIVER    PTCLDY    55  55 100 NW5       30.06R
LAND O LAKES   PTCLDY    56  54  90 NW5       30.06F
RHINELANDER    MOCLDY    56  54  93 W7        30.07R
PHILLIPS       MOCLDY    56  55  97 CALM      30.09S
ANTIGO         PTCLDY    56  54  94 NW8       30.05F
TOMAHAWK       MOCLDY    53  51  94 W3        30.08R
MERRILL        MOCLDY    57  55  94 W3        30.07S
$$

WIZ013-073-290700-
NORTHEAST WISCONSIN

CITY           SKY/WX    TMP DP  RH WIND       PRES   REMARKS
IRON MOUNTAIN  MOCLDY    59  53  80 W6        29.99F
MARINETTE      CLEAR     61  54  77 CALM      29.99S
OCONTO         PTCLDY    59  55  85 CALM      30.00S
$$

WIZ017-030-035>037-045-290700-
CENTRAL WISCONSIN

CITY           SKY/WX    TMP DP  RH WIND       PRES   REMARKS
MEDFORD        MOCLDY    56  54  94 W3        30.09F
WAUSAU         CLOUDY    60  55  83 NW8       30.06R
MOSINEE        LGT RAIN  59  57  94 NW7       30.08R
MARSHFIELD     CLOUDY    62  54  74 N14       30.08S
WISC RAPIDS    MOCLDY    60  55  83 NW3       30.08S
STEVENS POINT  PTCLDY    61  54  77 NW7       30.06F
WAUPACA        PTCLDY    66  55  67 W6        30.04S
SHAWANO        CLEAR     64  55  73 W8        30.03S
CLINTONVILLE   CLEAR     59  54  82 NW6       30.03S
$$

WIZ038-039-048-051-290700-
FOX VALLEY

CITY           SKY/WX    TMP DP  RH WIND       PRES   REMARKS
NWS GREEN BAY  CLOUDY    62  56  80 W5        30.01F
APPLETON       CLOUDY    61  54  77 W8        30.03F
OSHKOSH        CLOUDY    63  55  75 W6        30.03F
FOND DU LAC    MOCLDY    63  54  72 W7        30.04S
$$

WIZ022-050-052-290700-
EAST CENTRAL WISCONSIN

CITY           SKY/WX    TMP DP  RH WIND       PRES   REMARKS
STURGEON BAY   CLOUDY    64  55  72 NW8       30.00S
MANITOWOC      CLOUDY    60  54  80 W3        30.01F
SHEBOYGAN      CLOUDY    56  54  93 SW3       30.02F
$$

LMZ563-521-522-541>543-290700-
LAKESHORE

STATION/POSITION TIME  TEMP    WIND        PRES    VSBY  WAVE
                       AIR SEA DIR/SP/G                  HT/PER
                 (UTC) (F)     (DEG/KT/KT) (MB)    (MI)  (FT/S)
SHEBOYGAN LKSHOR 0600   60     200/  5/  5 1016.8F
KEWAUNEE LKSHORE 0600   59     300/  4/  5 1016.4F
ALGOMA MARINA    0600             CALM       N/A
NORTHPORT PIER   0600   65     300/  7/ 11 1014.9S
N MID LAKE BUOY  0600   58 54  260/  8/ 10 1014.1F         1
S GREEN BAY BUOY 0500   65 66  290/ 12     1016.8F
SISTER BAY LKSHO 0500   66     330/ 11/ 12   N/A
CHAMBERS ISLAND  0600   64     280/  1/  4 1015.6S
MENOMINEE LKSHOR 0600   64     280/  5/  9 1016.2S
$$


USA.gov is the U.S. government's official web portal to all federal, state and local government web resources and services.